Regional Weather Roundup
Issued by NWS

Home | Current Version | Previous Version | Text Only | Print | Product List | Glossary Off
Versions: 1 2 3 4 5 6 7 8 9 10 11 12 13 14 15 16 17 18 19 20 21 22 23 24 25 26 27 28 29 30 31 32 33 34 35 36 37 38 39 40 41 42 43 44 45 46 47 48 49 50

000
ASUS43 KFSD 241110
RWRSD

WEATHER ROUNDUP FOR SOUTH DAKOTA
NATIONAL WEATHER SERVICE SIOUX FALLS SD
600 AM CDT THU APR 24 2014

NOTE: "FAIR" INDICATES FEW OR NO CLOUDS BELOW 12,000 FEET WITH NO
SIGNIFICANT WEATHER AND/OR OBSTRUCTIONS TO VISIBILITY.


SDZ001>005-009-010-012>017-241200-
NORTHWEST AND NORTH CENTRAL SOUTH DAKOTA

CITY           SKY/WX    TMP DP  RH WIND       PRES   REMARKS
BUFFALO          N/A     33  22  63 W8        29.75S WCI  26
FAITH            N/A     39  26  59 W18       29.79S
MOBRIDGE       MOCLDY    39  33  79 NW8       29.71F
$$

SDZ012>016-024>037-041>051-057-063-072>074-241200-
SOUTHWEST AND SOUTH CENTRAL SOUTH DAKOTA

CITY           SKY/WX    TMP DP  RH WIND       PRES   REMARKS
RAPID CTY ARPT CLEAR     34  20  56 NW9       29.85S WCI  27
PIERRE         CLOUDY    45  34  65 NW14      29.74S
CUSTER         CLEAR     29  15  56 W6        29.87S WCI  23
ELLSWORTH AFB  CLEAR     34  20  57 W9        29.85S WCI  26
PHILIP         CLEAR     38  30  73 W9        29.82R
PINE RIDGE     CLEAR     36  31  82 W6        29.88R
SPEARFISH      FAIR      34  18  51 W6        29.87S WCI  29
WINNER         FAIR      44  34  67 NW12      29.76R
$$

SDZ004>011-016>023-039-040-241200-
NORTHEAST SOUTH DAKOTA

CITY           SKY/WX    TMP DP  RH WIND       PRES   REMARKS
ABERDEEN       CLOUDY    38  37  97 CALM      29.74R
WATERTOWN      CLOUDY    40  38  93 NE6       29.69F
SISSETON         N/A     40  39  97 SE3       29.73F
$$

SDZ017-020-022-023-036>040-048>070-241200-
SOUTHEAST SOUTH DAKOTA

CITY           SKY/WX    TMP DP  RH WIND       PRES   REMARKS
SIOUX FALLS    LGT RAIN  46  45  96 N5        29.65F FOG
HURON          CLOUDY    43  41  93 N6        29.71S
CHAMBERLAIN      N/A     47  38  71 NW8       29.75R
MITCHELL       LGT RAIN  45  43  93 NW8       29.70S
YANKTON        CLOUDY    48  48 100 NW7       29.65F
$$

ABBREVIATIONS USED IN REMARKS
   TC - TEMPERATURE IN CELSIUS
  WCI - WIND CHILL INDEX
   HX - HEAT INDEX
  VSB - VISIBILITY




USA.gov is the U.S. government's official web portal to all federal, state and local government web resources and services.